Location: Maynard F. Jordan Observatory
(44.9000°N, 68.6700°W)
Time: 20:05:44
(UTC-04:00)

Daily predictions for brighter satellites

Satellite Brightness Start Highest point End
(mag) Time Altitude Azimuth Time Altitude Azimuth Time Altitude Azimuth
Cosmos 2297 Rocket 3.1 20:54:16 10° SW 20:59:49 57° WNW 21:05:25 10° NNE
Cosmos 1356 Rocket 3.8 20:57:54 10° S 21:02:00 49° E 21:06:10 10° NNE
H-2A R/B 3.2 20:59:18 10° SE 21:03:55 31° ENE 21:08:37 10° N
Cosmos 1741 Rocket 4.1 21:02:10 10° SSW 21:07:29 84° ESE 21:12:49 10° NNE
Cosmos 1818 4.0 21:02:58 10° NW 21:08:21 62° WSW 21:13:41 10° SSE
Cosmos 2263 Rocket 3.8 21:06:17 10° SE 21:09:13 15° E 21:12:11 10° ENE
YAOGAN 6 3.1 21:06:15 10° S 21:09:51 62° W 21:13:32 10° NNW
Meteor 1-21 Rocket 4.3 21:05:57 10° S 21:11:32 63° E 21:17:03 10° NNE
ATLAS 5 CENTAUR R/B 1.9 21:08:01 10° SW 21:12:42 85° NW 21:17:51 10° NE
Cosmos 1726 3.0 21:10:45 10° N 21:14:08 34° ENE 21:17:27 10° SE
RESURS DK-1 2.8 21:12:58 10° NNW 21:17:04 52° ENE 21:20:58 11° SE
Cosmos 1300 3.8 21:13:59 10° NNE 21:17:24 30° ENE 21:20:36 11° SE
Cosmos 1802 Rocket 4.0 21:13:51 10° N 21:20:00 73° E 21:26:08 10° SSE
Cosmos 1076 Rocket 3.5 21:15:55 10° S 21:20:17 83° E 21:24:41 10° N
SL-14 R/B 4.4 21:18:09 10° SSE 21:21:31 27° E 21:24:52 10° NNE
Cosmos 1408 Rocket 3.7 21:19:27 10° S 21:23:38 56° E 21:27:54 10° NNE
ERBS 2.9 21:26:55 10° NW 21:30:15 51° NE 21:33:11 12° ESE
Cosmos 2221 3.7 21:28:13 10° NNW 21:32:24 43° W 21:36:33 10° SSW
Cosmos 1603 3.7 21:29:45 10° NNW 21:35:27 84° ENE 21:40:30 13° SSE
Cosmos 2151 4.3 21:34:26 14° SE 21:37:06 24° E 21:40:33 10° NE
Tiangong 1 0.9 21:37:27 10° W 21:40:12 54° S 21:42:16 16° ESE
Cosmos 1814 Rocket 4.2 21:34:55 10° NNW 21:40:16 66° ENE 21:44:41 15° SSE
Cosmos 371 Rocket 3.4 21:38:30 10° NNW 21:43:18 66° ENE 21:47:09 16° SSE
Cosmos 1500 Rocket 4.4 21:40:57 15° SSE 21:44:11 34° E 21:48:12 10° NNE
Cosmos 1674 3.8 21:41:24 10° SSW 21:45:02 45° WNW 21:48:39 10° N
MetOp-A 4.5 21:40:55 10° S 21:46:13 65° WSW 21:51:34 10° NNW
Cosmos 2016 Rocket 4.1 21:40:18 10° N 21:46:36 85° W 21:52:47 10° S
ARGOS 3.3 21:42:43 10° S 21:48:08 79° WSW 21:53:35 10° NNW
Cosmos 1486 Rocket 4.4 21:44:24 10° S 21:49:21 43° ESE 21:54:21 10° NNE
Cosmos 841 Rocket 4.0 21:44:49 10° NNW 21:49:57 50° ENE 21:53:48 17° SE
Cosmos 1943 3.5 21:45:01 10° NNW 21:50:35 58° ENE 21:54:57 17° SE
Cosmos 1455 4.1 21:47:58 10° NNE 21:50:39 18° ENE 21:52:33 13° ESE
CZ-3B R/B 4.3 21:47:47 10° SW 21:51:12 81° SE 22:04:21 10° NE
Lacrosse 5 2.0 21:46:31 10° NW 21:51:33 67° SW 21:55:19 18° SSE
SPOT 5 3.0 21:47:02 12° S 21:51:35 79° WSW 21:56:44 10° NNW
Cosmos 1763 Rocket 3.6 21:46:33 10° NNW 21:51:40 64° ENE 21:55:27 18° SE
SL-16 R/B 3.9 21:47:09 10° NW 21:51:50 27° WSW 21:56:29 10° SSW
CARTOSAT-1 4.4 21:52:19 17° SE 21:55:09 38° ENE 21:59:09 10° N
SPOT 1/Viking Rocket 3.5 21:54:30 15° SSE 21:58:49 89° E 22:04:01 10° NNW
Cosmos 1766 Rocket 4.3 21:56:48 10° SSW 22:01:03 54° WNW 22:05:19 10° N
Abrixas rocket 2.1 22:01:11 10° WNW 22:04:25 69° SSW 22:06:04 26° SE
Cosmos 1328 Rocket 3.6 22:00:14 10° N 22:04:35 80° W 22:07:53 17° S
USA 245 4.3 22:07:27 13° SSW 22:10:16 42° W 22:14:22 10° NNW
Cosmos 1515 Rocket 3.5 22:06:10 10° N 22:10:32 86° E 22:13:24 21° S
Cosmos 2233 Rocket 4.0 22:04:47 10° N 22:11:00 67° E 22:15:24 20° SSE
Cosmos 1151 Rocket 3.1 22:06:41 10° N 22:11:05 67° E 22:13:44 23° SSE
Landsat 7 3.8 22:08:35 20° SSE 22:11:54 82° ENE 22:16:41 10° NNW
IGS 5A 3.7 22:11:57 24° SE 22:14:17 55° ENE 22:18:22 10° N
USA 234 3.2 22:08:00 10° NE 22:14:33 72° SE 22:21:05 10° SW
H-2A R/B 2.5 22:13:53 23° SE 22:16:15 48° ENE 22:20:20 10° N
Cosmos 1743 Rocket 3.6 22:13:16 13° SSW 22:17:05 80° W 22:21:27 10° N
Cosmos 2228 Rocket 3.5 22:14:08 10° NNW 22:18:41 63° W 22:22:04 17° S
Cosmos 1703 3.5 22:22:25 28° SSE 22:24:12 52° E 22:28:06 10° NNE
Meteor 2-12 Rocket 4.4 22:20:01 10° N 22:26:06 74° E 22:30:01 23° SSE
Terra 1.8 22:24:00 25° SSE 22:26:50 81° ENE 22:31:37 10° NNW
Meteor 1-11 4.3 22:23:46 15° S 22:28:41 84° E 22:34:32 10° NNE
CZ-4 R/B 4.3 22:25:12 10° NNE 22:29:49 42° E 22:31:53 27° SSE
H-2A ROCKET BODY 4.3 22:29:52 10° SSW 22:34:43 25° SE 22:48:45 10° ESE
Cosmos 1503 Rocket 4.1 22:32:17 23° S 22:35:21 56° ESE 22:40:25 10° NNE
Meteor 1-27 4.5 22:36:14 10° NNW 22:42:02 70° W 22:45:45 23° S
H-2A R/B 3.1 22:39:05 15° SSW 22:43:10 40° W 22:48:17 10° NNW
Cosmos 304 Rocket 3.7 22:39:51 10° NNW 22:44:41 81° ENE 22:46:52 32° SSE
Cosmos 1626 2.1 22:44:37 31° SSW 22:46:17 80° W 22:50:02 10° N
Cosmos 2058 3.2 22:44:53 23° SSW 22:47:26 68° W 22:51:40 10° N
CZ-4B R/B 3.8 22:43:58 10° NNE 22:49:10 54° E 22:51:29 31° SSE
Cosmos 540 Rocket 3.4 22:46:01 10° NNW 22:51:12 80° ENE 22:53:35 33° SSE
Cosmos 2263 Rocket 2.2 22:46:58 11° SSW 22:52:21 83° WNW 22:57:59 10° NNE
Spot 4 3.8 22:55:05 34° SSE 22:57:16 83° ENE 23:02:10 10° NNW
Cosmos 2285 Rocket 4.0 22:51:53 10° NNW 22:58:16 82° WSW 23:01:42 29° SSE
COSMOS 2406 4.1 22:54:13 10° NNW 22:59:35 40° NE 23:02:50 21° ESE
Sich 1 3.5 22:59:55 37° SE 23:00:53 44° E 23:04:58 10° NNE
SL-24 R/B 4.4 23:00:13 41° SSE 23:01:37 83° ENE 23:05:50 10° NNW
Cosmos 2034 Rocket 4.3 22:57:28 10° N 23:03:45 57° ENE 23:06:49 30° SE
ERBS 4.3 23:04:16 10° W 23:06:28 18° WSW 23:06:28 18° WSW
deb Chang Zheng 4 3.7 23:02:57 10° N 23:07:20 74° WNW 23:09:31 29° SSW
PSLV R/B 3.6 23:09:22 44° WSW 23:09:25 45° W 23:12:12 10° NNW
Cosmos 1891 Rocket 4.5 23:03:39 10° N 23:09:44 70° E 23:12:33 33° SSE
ALOS 2 4.0 23:10:54 23° ESE 23:12:26 28° ENE 23:16:12 10° N
Cosmos 1707 Rocket 3.5 23:08:00 10° N 23:12:30 84° E 23:13:54 44° SSE
DELTA 2 DEB (DPAF) 4.1 23:11:06 41° S 23:12:37 85° W 23:17:07 10° NNW
Tiangong 1 3.5 23:13:05 10° W 23:13:24 12° WSW 23:13:24 12° WSW
CZ-2C R/B 4.0 23:12:52 27° SE 23:15:38 45° ENE 23:20:59 10° N
Cosmos 1354 Rocket 4.4 23:16:06 18° SW 23:20:01 61° WNW 23:25:14 10° NNE
Cosmos 1844 Rocket 3.1 23:24:44 36° SE 23:26:04 42° ESE 23:31:18 10° NE
Cosmos 1455 3.4 23:22:56 10° NNW 23:26:28 34° W 23:27:33 29° SW
Cosmos 1464 Rocket 4.1 23:23:38 10° NNW 23:29:46 70° W 23:32:45 32° S
Cosmos 1666 Rocket 3.5 23:28:28 46° S 23:29:48 87° W 23:34:17 10° N
CZ-4C R/B 2.2 23:28:14 40° S 23:29:52 55° ESE 23:35:39 10° NE
Cosmos 1933 3.9 23:29:13 10° N 23:33:09 44° ENE 23:33:50 40° ESE
Lacrosse 5 4.1 23:32:04 10° W 23:33:39 11° WSW 23:34:30 11° SW
Cosmos 1862 Rocket 4.1 23:32:18 10° N 23:36:32 47° ENE 23:37:30 40° ESE
Cosmos 1869 3.6 23:33:21 10° NNW 23:37:13 54° W 23:37:55 46° SW
Cosmos 1933 Rocket 4.0 23:38:43 41° ESE 23:39:18 43° E 23:43:26 10° NNE
Cosmos 1805 Rocket 4.4 23:39:13 28° SW 23:41:01 43° WNW 23:45:11 10° N
CZ-4B R/B 4.2 23:42:58 10° E 23:44:06 11° ENE 23:45:19 10° NE
Cosmos 1633 Rocket 3.1 23:44:55 47° SSW 23:46:03 71° W 23:50:25 10° N
Cosmos 1315 Rocket 3.8 23:46:28 31° E 23:46:28 31° E 23:49:57 10° NNE
CZ-4C R/B 4.4 23:46:43 33° SW 23:47:44 39° W 23:51:53 10° NNW
SL-24 R/B - RUBIN 2 3.9 23:43:39 10° NW 23:49:16 86° NE 23:50:52 45° SE
Cosmos 1400 Rocket 2.8 23:49:33 63° SE 23:50:00 70° E 23:54:09 10° NNE
H-2A R/B 4.1 23:51:01 14° WSW 23:52:30 17° W 23:55:17 10° NW
SME Rocket 4.0 23:52:50 30° WSW 23:53:40 33° W 23:57:52 10° NNW
